Regional Weather Roundup
Issued by NWS

Home | Current Version | Previous Version | Graphics & Text | Print | Product List | Glossary On
Versions: 1 2 3 4 5 6 7 8 9 10 11 12 13 14 15 16 17 18 19 20 21 22 23 24 25 26 27
000
ASUS45 KSLC 270810
RWRUT

UTAH REGIONAL WEATHER ROUNDUP
NATIONAL WEATHER SERVICE SALT LAKE CITY UT
200 AM MDT MON MAR 27 2017

UTZ001>011-023>025-270900-

NORTHERN UTAH

CITY           SKY/WX    TMP DP  RH WIND       PRES   REMARKS
BRIGHAM CITY     N/A     51  31  47 S10       29.92S
HILL AFB       MOCLDY    43  31  63 SE7       29.91F
LOGAN          CLOUDY    45  37  73 CALM      29.91F
OGDEN          CLOUDY    46  31  55 SE6       29.90F
SALT LAKE CITY MOCLDY    50  32  50 SE9       29.90F
WENDOVER       CLOUDY    47  38  71 NE6       29.89
HEBER CITY     CLOUDY    37  30  75 CALM      29.94S

$$

UTZ011>015-024>027-270900-

CENTRAL/NORTHEAST UTAH

CITY           SKY/WX    TMP DP  RH WIND       PRES   REMARKS
PROVO AIRPORT  CLOUDY    46  34  62 CALM      29.93F
MOAB/CANYONLAN CLEAR     39  24  55 CALM      29.91F
DELTA          MOCLDY    45  36  70 S5        29.91F
PRICE          CLOUDY    42  29  59 SE5       29.95F
RICHFIELD      PTCLDY    41  36  81 CALM      29.97F
ROOSEVELT      CLOUDY    45  32  61 SW7       29.96F
VERNAL         MOCLDY    39  31  72 CALM      29.95S

$$

UTZ013>016-019>022-027-270900-

SOUTHERN UTAH

CITY           SKY/WX    TMP DP  RH WIND       PRES   REMARKS
BRYCE CANYON   PTCLDY    30  25  81 S3        30.03F
CEDAR CITY     CLOUDY    45  32  60 S3        29.95F
MILFORD        MOCLDY    47  34  60 S9        29.93F
ST GEORGE      CLOUDY    55  32  41 E9        29.92F
HANKSVILLE     CLOUDY    41  27  56 CALM      29.95S
KANAB          PTCLDY    36  32  87 NE3       30.02F
BLANDING       CLEAR     35  22  59 N6        30.06S WCI  30

$$

REGIONAL REPORTS     COLORADO/ARIZONA

CITY           SKY/WX    TMP DP  RH WIND       PRES   REMARKS
CRAIG, CO      CLOUDY    29  23  78 CALM      29.98S
GRAND JUNCTION CLOUDY    43  25  49 E5        29.95S
RIFLE, CO      CLOUDY    34  27  75 CALM      29.99S
MONTROSE, CO   CLOUDY    41  32  70 SE13      30.01S
CORTEZ, CO     CLOUDY    32  30  92 CALM      30.01F
COLORADO CITY    N/A     37  34  87 CALM      30.01F
PAGE, AZ       CLEAR     54  33  45 W3        29.95S
GRAND CANYON   PTCLDY    29  27  92 CALM      30.05F
KINGMAN, AZ    CLEAR     49  25  39 SE12      29.94F
FLAGSTAFF, AZ  CLEAR     31  25  78 CALM      30.06F

$$

REGIONAL REPORTS    NEVADA/IDAHO/WYOMING

CITY           SKY/WX    TMP DP  RH WIND       PRES   REMARKS
LAS VEGAS, NV  PTCLDY    64  31  28 S6        29.85F
ELY, NY        PTCLDY    40  32  73 VRB5      29.92F
ELKO, NV       CLOUDY    38  32  79 CALM      29.90F
POCATELLO, ID  LGT RAIN  42  38  85 NW5       29.91F
BURLEY, ID     MOCLDY    40  36  86 CALM      29.87F
EVANSTON, WY   CLOUDY    34  24  67 SW8       29.95S WCI  27
ROCK SPRINGS,  CLOUDY    37  26  64 SW7       29.96F WCI  32
KEMMERER, WY     N/A     32  27  80 SE6       29.96S WCI  26

$$




USA.gov is the U.S. government's official web portal to all federal, state and local government web resources and services.